Location: La Comballaz
(46.3780°N, 7.0817°E)
Time: 03:20:35
(UTC+00:00)

Envisat - Pass Details

Date: 07 December 2021
Orbit: 764 x 766 km, 98.2° (Epoch: 16 January)

Event Time Altitude Azimuth Distance (km) Brightness Sun altitude
Rises 16:36:57 0° 199° (SSW) 3,220 6.9 -8.7°
Reaches altitude 10° 16:39:39 10° 213° (SSW) 2,299 6.4 -9.1°
Maximum altitude 16:43:45 25° 267° (W) 1,526 5.5 -9.8°
Drops below altitude 10° 16:47:54 10° 322° (NW) 2,313 5.7 -10.4°
Sets 16:50:38 0° 336° (NNW) 3,244 6.3 -10.9°
